Location: Squirrel Cove
(50.1074°N, 124.9139°W)
Time: 19:28:32
(UTC-08:00)

Envisat - Pass Details

Date: 29 November 2022
Orbit: 763 x 765 km, 98.2° (Epoch: 05 February)

Event Time Altitude Azimuth Distance (km) Brightness Sun altitude
Rises 16:48:54 0° 206° (SSW) 3,219 7.2 -4.6°
Reaches altitude 10° 16:51:47 10° 223° (SW) 2,299 6.9 -5.0°
Maximum altitude 16:55:30 20° 270° (W) 1,704 5.8 -5.5°
Drops below altitude 10° 16:59:14 10° 318° (NW) 2,313 5.7 -6.1°
Sets 17:02:09 0° 335° (NNW) 3,245 6.2 -6.5°
